THOR AGENA B R/B, 741

Orbit data source: Space-Track

THOR AGENA B R/B, 741 is space debris in LEO originally from a launch on Sat, 25 Jan 1964 UTC launched from the Air Force Western Test Range (AFWTR). Debris objects in space refer to the collection of defunct objects orbiting the Earth. Examples of debris include non-operational satellites, rocket bodies, and fragments generated from explosions, collisions, or faulty payload assembly.

Loading next visibility...
Identifier
741, 1964-004B
Orbit
LEO
Last TLE update
17 hours ago
Origin
Manufacturer
LMSC
Mission
Spacecraft
Bus & Motor
AGENA B, Unknown motor
Mass
~705 kg wet, 705 kg dry
Launch date (UTC)
1964-01-25 (61 years ago)
Launch vehicle
Unknown
Launch site
Air Force Western Test Range (AFWTR)
Object type
Payload
Rocket body
Debris
Shape & HBR
Cyl + 1 Nozzle, 6.3 m
Radar Cross Section
8.306 m², Large (>1 m²)

Expand to show TLE details & history

TLE from 17 hours ago
0 THOR AGENA B R/B
1 00741U 64004B   25128.53490054  .00000163  00000-0  33022-3 0  9997
2 00741  81.4872 133.4490 0172236 165.3507 312.8595 13.23802278959525
Epoch: 2025-05-08T12:50Z
Definitive object data (Epoch: 2025-05-08T12:50:15.406Z)
Latitude
62.12169°
Longitude
-122.06894°
Altitude
1,093.602 km
Speed
7.353 km/s
True Right ascension
19h 48m 23s
True Declination
61° 59' 09"
Sunlit
Object was in daylight at TLE epoch
Visualization TLE readout
Latitude
-79.67014°
Longitude
18.90537°
Altitude
1,245.841 km
Speed
7.209 km/s
Apparent Right ascension
02h 44m 24s
Apparent Declination
-62° 50' 44"
Sunlit
Object is in daylight
Visualization observer readout
Local Sidereal Time
14:05:39
Azimuth
191.037° SSW
Elevation
-66.347°
Doppler factor
1
Orbital elements
Apogee altitude
1,297.473 km
Perigee altitude
1,037.547 km
Semi-major axis
7,545.647 km
Eccentricity
0.0172236
Inclination
81.4872°
RAAN
133.449°
Arg. of periapsis
165.3507°
True anomaly
311.39142°
Mean anomaly
312.8595°
Eccentric anomaly
312.12761°
Mean motion
3.3113 °/min
BSTAR
0.00033022
Orbital period
108.72 mins
Loading maneuver chart data...
Loading SW <> Apogee altitude chart data...
Loading historical data...
Loading historical data...
Loading historical data...
Loading historical data...
Loading historical data...
Loading historical data...
Loading historical data...

THOR AGENA B R/B Visibility forecast

Observer location: undefined°, undefined°

Span
Click to sort rows by Start time (UTC) header in descending order
Start Az.
Max El. time (UTC)
Max El. Az.
Max El.
End time (UTC)
End Az.
9 mins2025-05-09 10:36:54.143Z21.459° NNE2025-05-09 10:41:54.143Z70.696° E18.399°2025-05-09 10:45:54.143Z109.576° ESE
11 mins2025-05-09 12:26:54.143Z342.22° N2025-05-09 12:31:54.143Z265.344° W42.13°2025-05-09 12:37:54.143Z186.11° SSW
13 mins2025-05-10 00:37:54.143Z171.462° S2025-05-10 00:43:54.143Z89.816° E42.299°2025-05-10 00:50:54.143Z15.235° NNE
9 mins2025-05-10 02:29:54.143Z251.367° W2025-05-10 02:33:54.143Z289.788° WNW21.849°2025-05-10 02:38:54.143Z337.964° N
|